Location: Dampvalley
(47.9094°N, 6.1967°E)
Time: 02:47:55
(UTC+00:00)

N. Korean satellite - Pass Details

Date: 12 December 2022
Orbit: 408 x 444 km, 97.3° (Epoch: 28 January)

Event Time Altitude Azimuth Distance (km) Brightness Sun altitude
Rises 05:58:31 0° 359° (N) 2,491 9.9 -12.2°
Reaches altitude 10° 06:00:58 10° 341° (NNW) 1,601 8.8 -11.8°
Maximum altitude 06:03:27 19° 295° (WNW) 1,144 7.8 -11.4°
Drops below altitude 10° 06:05:53 10° 248° (WSW) 1,569 8.7 -11.0°
Sets 06:08:16 0° 230° (SW) 2,421 9.8 -10.7°
